Lexington Weather

Lexington, Massachusetts, USA

34°F
10/30/2020 6:49am 
  • Lexington Conditions: Light snow, Mist, Overcast
  • Temperature: 34.0°F / 1.1°CColder 1.2°F than last hour.
  • Dew Point: 33.3°FDecreased 1.2°Fsince last hour.
  • Relative Humidity: 97
  • Wind: Wind from NNE NNE 3 mph, 10-min avg: 2 mph, gust: 4 mph
  • Barometer: 29.76 in Steady
  • Visibility: 4 miles
  • Rain Today: 0.09 in
  •   
Southeast Middlesex County - Winter Weather Advisory
 - SEE ALL NEARBY ALERTS -

Regional Weather Roundup
for Boston / Norton, MA

        
000
ASUS41 KBOX 290305
RWRBOX

REGIONAL WEATHER ROUNDUP
NATIONAL WEATHER SERVICE BOSTON/NORTON MA
1100 PM EDT WED OCT 28 2020

NOTE:  "FAIR" INDICATES FEW OR NO CLOUDS BELOW 12,000 FEET WITH NO 
SIGNIFICANT WEATHER AND/OR OBSTRUCTIONS TO VISIBILITY.

MAZALL-290400-
EASTERN MASSACHUSETTS
  
CITY           SKY/WX    TMP DP  RH WIND       PRES   REMARKS
BOSTON         CLOUDY    47  45  93 SW6       29.96S                  
BEVERLY        CLOUDY    45  44  97 W6        29.94S FOG              
LAWRENCE       CLOUDY    45  44  97 CALM      29.96S                  
BEDFORD        CLOUDY    45  45 100 SW5       29.94S                  
BLUE HILL        N/A     45  44  97 W8        29.94R                  
NORWOOD        MOCLDY    48  44  86 W5        29.95F                  
MARSHFIELD     CLOUDY    48  48 100 VRB5      29.95F                  
PLYMOUTH       CLOUDY    47  45  93 W7        29.96S                  
TAUNTON        MOCLDY    46  43  89 CALM      29.96S FOG              
NEW BEDFORD    MOCLDY    49  47  93 CALM      29.96S                  
$$

MAZALL-290400-
CAPE COD AND THE ISLANDS
  
CITY           SKY/WX    TMP DP  RH WIND       PRES   REMARKS
FALMOUTH       CLOUDY    50  48  93 NW7       29.96S                  
HYANNIS        MOCLDY    50  48  93 W7        29.94S                  
CHATHAM        CLOUDY    51  48  89 NW5       29.96R                  
PROVINCETOWN   CLOUDY    49  48  97 W14       29.95R                  
NANTUCKET      MOCLDY   N/A N/A N/A W8        29.95S                  
MARTHAS VNYRD  MOCLDY    51  49  92 NW3       29.96F                  
$$
 
MAZALL-290400-
CENTRAL AND WESTERN MASSACHUSETTS
  
CITY           SKY/WX    TMP DP  RH WIND       PRES   REMARKS
WORCESTER      CLOUDY    45  44  97 SW6       29.94S                  
FITCHBURG      MOCLDY    44  44 100 CALM      29.95F                  
ORANGE         CLOUDY    45  44  97 CALM      29.95F                  
SPRINGFIELD    FOG       47  47  99 CALM      29.95F VSB 5/8          
WESTFIELD      FOG       47  47 100 SW3       29.96S VSB 1/4          
NORTH ADAMS    CLOUDY    47  44  90 W7        29.95S                  
PITTSFIELD     PTCLDY    39  38  96 S3        29.94S                  
$$
 
RIZALL-290400-
RHODE ISLAND
  
CITY           SKY/WX    TMP DP  RH WIND       PRES   REMARKS
PROVIDENCE     MOCLDY    48  47  96 W5        29.97S                  
NEWPORT        MOCLDY    49  48  97 W5        29.96F                  
BLOCK ISLAND   MOCLDY    52  48  86 VRB5      29.98F                  
SMITHFIELD     FOG       44  44 100 CALM      29.96S VSB 3/4          
WESTERLY       MOCLDY    48  46  93 CALM      29.98F                  
$$
 
CTZALL-290400-
CONNECTICUT
  
CITY           SKY/WX    TMP DP  RH WIND       PRES   REMARKS
BRADLEY INTL   FOG       48  46  93 SW6       29.97S VSB 1/2          
HARTFORD       CLOUDY    50  47  89 CALM      29.97F FOG              
BRIDGEPORT     CLOUDY    53  50  89 NW3       29.96F                  
DANBURY        CLOUDY    47  46  97 CALM      29.98F                  
GROTON         MOCLDY    50  48  93 N5        29.96F                  
NEW HAVEN      CLOUDY    55  52  89 NW3       29.96F                  
CHESTER        FAIR      50  50 100 CALM      29.97F                  
MERIDEN        FOG       46  45  96 CALM      29.97F VSB 1/2          
WILLIMANTIC    CLOUDY    49  48  97 CALM      29.97F                  
OXFORD         FOG       46  46 100 SW3       29.97F VSB 1/2          
$$

MEZ002-015-021-024-NHZ003-005-008-011-012-014-VTZ005-008-290400-
NORTHERN NEW ENGLAND
  
CITY           SKY/WX    TMP DP  RH WIND       PRES   REMARKS
PORTLAND ME    FOG       38  38 100 NW7       29.93R VSB 1/2          
BANGOR ME      CLOUDY    36  31  82 NW3       29.92F                  
CONCORD NH     FOG       41  40  96 SW3       29.93S VSB 1/4          
MANCHESTER NH  FOG       44  42  93 SW3       29.93S VSB 1/4          
NASHUA NH      FOG       41  41 100 CALM      29.95S VSB 1/4          
PORTSMOUTH NH  CLOUDY    42  42  99 SW3       29.92  FOG              
JAFFREY NH     CLOUDY    43  41  93 CALM      29.93S                  
KEENE NH       CLOUDY    44  43  96 S5        29.95S                  
BURLINGTON VT  CLOUDY    46  38  73 CALM      29.94R                  
MT. WASHINGTON FOG       25  25 100 W55G63      N/A  VSB 1/16WCI   3  
$$

NYZ052-076-290400-
EASTERN NEW YORK
  
CITY           SKY/WX    TMP DP  RH WIND       PRES   REMARKS
ALBANY         FOG       42  42 100 CALM      29.98S VSB 1/8          
NEW YORK CITY  CLOUDY    59  48  67 W3        29.97F                  
$$
 
ANZALL-290400-
MARINE OBSERVATIONS
  
STATION/POSITION TIME  TEMP    WIND        PRES    VSBY  WAVE
                       AIR SEA DIR/SP/G                  HT/PER
                 (UTC) (F)     (DEG/KT/KT) (MB)    (MI)  (FT/S)
BOSTON BUOY      NOT AVBL
BUZZARDS BAY     0200          320/ 11/ 13 1015.9R
NANTUCKET SOUND  0250      60  290/ 12/ 16   N/A           2/ 3
MASS BAY-STELLWA 0204   47 56  300/  8/ 12 1012.9F  1 7/8  2/ 5
ISLE OF SHOALS   0200   43     310/  7/  8 1013.4F
S OF BLOCK IS    0226      62                N/A           5/ 6
$$

......................KEY.........................
  SKY/WX - SKY CONDITION/PRESENT WEATHER
  TMP    - TEMPERATURE IN FAHRENHEIT
  DWPT   - DEWPOINT IN FAHRENHEIT
  RH     - RELATIVE HUMIDITY IN PERCENT
  WIND   - DIRECTION AND SPEED IN MPH
  PRES   - MEAN SEA LEVEL PRESSURE IN INCHES OF HG
  WCI    - WIND CHILL INDEX
  VSB    - VISIBILITY IN MILES
  HX     - HEAT INDEX
  TC     - TEMPERATURE IN CELSIUS
  VRB    - VARIABLE WIND DIRECTION
  N/A    - NOT AVAILABLE
  
      

Other recent Regional Weather Roundups

Fri Oct 30, 6:04am

Fri Oct 30, 5:04am

Fri Oct 30, 4:04am

Fri Oct 30, 3:04am

Fri Oct 30, 2:04am

Fri Oct 30, 1:04am

Fri Oct 30, 12:04am

Thu Oct 29, 11:04pm

Thu Oct 29, 10:04pm

Thu Oct 29, 9:04pm

Thu Oct 29, 8:04pm

Thu Oct 29, 7:04pm

Thu Oct 29, 6:04pm

Thu Oct 29, 5:05pm

Thu Oct 29, 4:05pm

Thu Oct 29, 3:05pm

Thu Oct 29, 2:04pm

Thu Oct 29, 1:04pm

Thu Oct 29, 12:04pm

Thu Oct 29, 11:04am

Thu Oct 29, 10:04am

Thu Oct 29, 9:04am

Thu Oct 29, 8:04am

Thu Oct 29, 7:04am

Thu Oct 29, 6:04am

Thu Oct 29, 5:04am

Thu Oct 29, 4:04am

Thu Oct 29, 3:04am

Thu Oct 29, 2:04am

Thu Oct 29, 1:05am

Thu Oct 29, 12:04am

Wed Oct 28, 10:04pm

Wed Oct 28, 9:04pm

Wed Oct 28, 8:04pm

Wed Oct 28, 7:05pm

Wed Oct 28, 6:04pm

Wed Oct 28, 5:05pm

Wed Oct 28, 4:04pm

Wed Oct 28, 3:04pm

Wed Oct 28, 2:04pm

Wed Oct 28, 1:05pm

Wed Oct 28, 12:05pm

Wed Oct 28, 11:05am

Wed Oct 28, 10:04am

Wed Oct 28, 9:04am

Wed Oct 28, 8:04am

Wed Oct 28, 7:04am

Wed Oct 28, 6:04am

Wed Oct 28, 5:05am

Wed Oct 28, 4:04am

Wed Oct 28, 3:04am

Wed Oct 28, 2:04am

Wed Oct 28, 1:05am

Wed Oct 28, 12:04am

Tue Oct 27, 11:04pm

Tue Oct 27, 10:04pm

Tue Oct 27, 9:05pm

Tue Oct 27, 8:04pm

Tue Oct 27, 7:04pm

Tue Oct 27, 6:04pm

Tue Oct 27, 5:04pm

Tue Oct 27, 4:05pm

Tue Oct 27, 3:04pm

Tue Oct 27, 2:04pm

Tue Oct 27, 1:04pm

Tue Oct 27, 12:04pm

Tue Oct 27, 11:04am

Tue Oct 27, 10:04am

Tue Oct 27, 9:04am

Tue Oct 27, 8:04am

Tue Oct 27, 7:04am

Tue Oct 27, 6:04am

Tue Oct 27, 5:04am

Tue Oct 27, 4:04am

Tue Oct 27, 3:04am

Tue Oct 27, 2:05am

Tue Oct 27, 1:04am

Tue Oct 27, 12:04am

Mon Oct 26, 11:05pm

Mon Oct 26, 10:04pm

Mon Oct 26, 9:04pm

Mon Oct 26, 8:04pm

Mon Oct 26, 7:04pm

Mon Oct 26, 6:04pm

Mon Oct 26, 5:04pm

Mon Oct 26, 4:05pm

Mon Oct 26, 2:04pm

Mon Oct 26, 1:04pm

Mon Oct 26, 12:04pm

Mon Oct 26, 11:05am

Mon Oct 26, 10:04am

Mon Oct 26, 9:04am

Mon Oct 26, 8:04am

Mon Oct 26, 7:04am

Mon Oct 26, 6:04am

Mon Oct 26, 5:04am

Mon Oct 26, 4:04am

Mon Oct 26, 3:04am

Mon Oct 26, 2:04am

Mon Oct 26, 1:04am

Mon Oct 26, 12:04am

Sun Oct 25, 11:05pm

Sun Oct 25, 10:04pm

Sun Oct 25, 9:04pm

Sun Oct 25, 8:04pm

Sun Oct 25, 7:04pm

Sun Oct 25, 6:04pm

Sun Oct 25, 5:04pm

Sun Oct 25, 4:05pm

Sun Oct 25, 3:04pm

Sun Oct 25, 2:04pm

Sun Oct 25, 1:04pm

Sun Oct 25, 12:04pm

Sun Oct 25, 11:04am

Sun Oct 25, 10:04am

Sun Oct 25, 9:04am

Sun Oct 25, 8:04am

Sun Oct 25, 7:04am

Sun Oct 25, 6:04am

Sun Oct 25, 5:04am

Sun Oct 25, 4:04am

Sun Oct 25, 3:04am

Sun Oct 25, 2:04am

Sun Oct 25, 1:05am

Sun Oct 25, 12:04am

Sat Oct 24, 11:04pm

Sat Oct 24, 10:04pm

Sat Oct 24, 9:04pm

Sat Oct 24, 8:04pm

Sat Oct 24, 7:04pm

Sat Oct 24, 6:04pm

Sat Oct 24, 5:05pm

Sat Oct 24, 4:04pm

Sat Oct 24, 3:04pm

Sat Oct 24, 2:04pm

Sat Oct 24, 1:05pm

Sat Oct 24, 12:04pm

Sat Oct 24, 11:05am

Sat Oct 24, 10:05am

Sat Oct 24, 9:04am

Sat Oct 24, 8:04am

Sat Oct 24, 7:04am

Sat Oct 24, 6:04am

Sat Oct 24, 5:04am

Sat Oct 24, 4:04am

Sat Oct 24, 3:04am

Sat Oct 24, 2:04am

Sat Oct 24, 1:05am

Sat Oct 24, 12:04am

Fri Oct 23, 11:04pm

Fri Oct 23, 10:04pm

Fri Oct 23, 9:04pm

Fri Oct 23, 8:05pm

Fri Oct 23, 7:04pm

Fri Oct 23, 6:04pm

Fri Oct 23, 5:05pm

Fri Oct 23, 4:04pm

Fri Oct 23, 3:04pm

Fri Oct 23, 2:05pm

Fri Oct 23, 1:04pm

Fri Oct 23, 12:04pm

Fri Oct 23, 11:04am

Fri Oct 23, 10:04am

Fri Oct 23, 9:04am

Fri Oct 23, 8:04am

Fri Oct 23, 7:04am

Meta data:

ID: d9720328-dc9d-4f46-af2b-045592bf16c0
Link: https://api.weather.gov/products/d9720328-dc9d-4f46-af2b-045592bf16c0